Location: Barrio Pajares
(40.5500°N, 4.1667°W)
Time: 16:48:15
(UTC+00:00)

Cosmos 1656 - Pass Details

Date: 18 April 2024
Orbit: 799 x 847 km, 71.1° (Epoch: 24 May)

Event Time Altitude Azimuth Distance (km) Brightness Sun altitude
Rises 20:32:46 0° 194° (SSW) 3,363 6.6 -17.0°
Reaches altitude 10° 20:35:13 10° 191° (SSW) 2,427 5.9 -17.4°
Maximum altitude 20:40:44 68° 110° (ESE) 886 3.5 -18.3°
Drops below altitude 10° 20:46:12 10° 28° (NNE) 2,410 6.1 -19.1°
Sets 20:48:37 0° 26° (NNE) 3,339 6.9 -19.5°
